Find Starlink 31447

NORAD ID: 59302 Int'l Des: 2024-056 Owner: SPXS Country: US Constellation: starlink operational
LEOCIRCULAR

Current View

Loading 3D Globe...

About Starlink 31447

Starlink 31447 (NORAD 59302) is a starlink constellation satellite (v2 mini) launched Mar 24, 2024 by SPXS of US. It operates in LEO, CIRCULAR orbit with a mass of 730.00 kg.

About Starlink 31447

Description loading...

Upcoming Passes

Passes for default location (London). Set your location on the main map for personalized predictions.

Altitude History

Loading altitude history...

Two-Line Element Set

1 59302U 24056G 26177.81595075 -.00002509 00000-0 -81745-4 0 9996
2 59302 43.0008 334.4350 0000477 299.1408 60.9396 15.27561799127846
Epoch: Jun 26, 2026 • Age: 22 hours

Current Status

Altitude 494.1 km
Velocity 7.62 km/s
Sub-Earth Point -38.17°S, 97.47°E
Launch Date Mar 24, 2024
Age 2.2 years
Type internet

Technical Details

Classification Payload
Mass 730.00 kg
Dry Mass 700.00 kg
Total Mass 730.00 kg
Length 0.30 m
Diameter 4.10 m
Span 29.00 m
Shape Box + pan
Manufacturer SPXS
Bus Type Starlink V2M
Phase Status In Orbit
Owner/State SPXS/US

Most Searched